Weather in Staropesterevo

Russia / Kemerovo Oblast     54°29′56″N   86°24′25″E
temp.,
°C
wind,
m/s
gust,
m/s
humid.,
%
clouds,
%
prec.,
mm/h
press.,
hPa
HPBL,
m
24 january, sun
sun2401:00−16s4890100 0.1 1032260
04:00−16ssw3493100 0.1 1032106
07:00−16sw3694100 0.1 1033151
10:00−17sw3696100 0.1 1034289
13:00−17wsw4793100 0.4 1035766
16:00−22nw4697100 0.3 1036232
19:00−31nw3496100 0.4 104091
22:00−35nw2398100 0.0 104423
25 january, mon
mon2501:00−39wnw11100100 0.0 104718
04:00−39sw229484 0.0 104918
07:00−40ssw229166 0.0 105118
10:00−40s239016 0.0 105221
13:00−36sse359114 0.0 1051229
16:00−33sse469380 0.0 1048262
19:00−33se359390 0.0 1047120
22:00−32sse2392100 0.0 104449
26 january, tue
tue2601:00−30sse2392100 0.0 104255
04:00−28se2399100 0.1 1040111
07:00−27se2499100 0.1 1039126
10:00−26ese2398100 0.1 1038107
13:00−22se2398100 0.4 1036187
16:00−24n1196100 0.0 103920
19:00−28ene1110085 0.0 103919
22:00−27se1210081 0.0 104019
27 january, wed
wed2701:00−24se239889 0.0 103944
04:00−20sse3798100 0.1 1037188
07:00−15sse5996100 0.8 1035382
10:00−13s61095100 1.0 1033579
13:00−10ssw61094100 2.3 1030699
16:00−8ssw61095100 1.9 1028731
19:00−8sw61295100 4.1 1028694
22:00−7sw71394100 1.6 1027730
28 january, thu
thu2801:00−7sw61490100 3.1 1026746
04:00−7sw61394100 0.3 1027733
07:00−6sw51293100 1.4 1027716
10:00−6sw61195100 1.0 1028678
13:00−5sw61095100 2.1 1028822
16:00−5wsw6995100 1.9 1028698
19:00−7sw51096100 3.4 1029601
22:00−8sw51191100 0.4 1031485